QPF
0.00 0.00 0.00 0.00 0.00 0.00 0.00 0.01 0.01 0.02 0.02 0.02 0.02 0.02 0.02 0.03 0.04 0.03 0.02 0.02 0.03 0.05 0.06 0.10 0.17 0.36 0.29 0.27 0.28 0.25 0.25 0.20 0.18 0.12 0.09 0.07 0.06 0.05 0.05 0.04 0.03 0.03 0.03 0.02
0.00 0.00 0.00 0.00 0.00 0.00 0.00 0.00 0.01 0.01 0.01 0.01 0.01 0.01 0.03 0.07 0.05 0.03 0.02 0.02 0.02 0.03 0.06 0.10 0.18 0.31 0.30 0.23 0.26 0.28 0.31 0.23 0.19 0.15 0.11 0.08 0.07 0.05 0.04 0.04 0.03 0.03 0.02 0.02
0.00 0.00 0.00 0.00 0.00 0.00 0.00 0.00 0.01 0.01 0.01 0.01 0.01 0.03 0.04 0.07 0.06 0.03 0.03 0.02 0.02 0.03 0.05 0.06 0.11 0.18 0.21 0.18 0.19 0.24 0.31 0.23 0.17 0.16 0.12 0.08 0.09 0.08 0.06 0.05 0.03 0.02 0.02 0.01
0.00 0.00 0.00 0.00 0.00 0.00 0.00 0.00 0.00 0.00 0.00 0.01 0.02 0.04 0.06 0.08 0.05 0.04 0.03 0.03 0.02 0.02 0.03 0.03 0.05 0.10 0.12 0.13 0.16 0.21 0.25 0.20 0.17 0.18 0.14 0.09 0.09 0.06 0.03 0.03 0.02 0.01 0.01 0.00
0.00 0.00 0.00 0.00 0.00 0.00 0.00 0.00 0.00 0.00 0.01 0.02 0.04 0.05 0.06 0.07 0.06 0.03 0.02 0.02 0.02 0.02 0.01 0.02 0.04 0.07 0.10 0.12 0.15 0.19 0.22 0.16 0.17 0.18 0.17 0.13 0.10 0.07 0.05 0.04 0.03 0.02 0.01 0.01
0.00 0.00 0.00 0.00 0.00 0.00 0.00 0.00 0.00 0.00 0.02 0.06 0.07 0.06 0.09 0.08 0.06 0.04 0.03 0.01 0.01 0.02 0.02 0.03 0.04 0.07 0.10 0.12 0.15 0.18 0.21 0.16 0.15 0.15 0.13 0.12 0.10 0.06 0.04 0.04 0.03 0.03 0.02 0.02
0.00 0.00 0.00 0.00 0.00 0.00 0.00 0.00 0.01 0.02 0.06 0.08 0.05 0.07 0.09 0.07 0.05 0.04 0.02 0.01 0.01 0.01 0.02 0.02 0.02 0.04 0.05 0.07 0.11 0.16 0.18 0.15 0.13 0.11 0.10 0.07 0.06 0.05 0.05 0.04 0.03 0.02 0.02 0.02
0.00 0.00 0.00 0.00 0.00 0.00 0.00 0.01 0.01 0.03 0.05 0.05 0.09 0.16 0.14 0.08 0.05 0.03 0.03 0.01 0.01 0.02 0.02 0.01 0.01 0.03 0.03 0.04 0.06 0.10 0.17 0.18 0.15 0.08 0.05 0.04 0.04 0.03 0.03 0.03 0.03 0.02 0.02 0.01
0.00 0.00 0.00 0.00 0.01 0.01 0.01 0.01 0.01 0.02 0.03 0.05 0.12 0.17 0.16 0.11 0.06 0.04 0.03 0.02 0.02 0.02 0.02 0.01 0.01 0.02 0.03 0.04 0.04 0.05 0.10 0.17 0.17 0.08 0.04 0.03 0.02 0.02 0.02 0.02 0.02 0.02 0.02 0.03
0.00 0.00 0.00 0.01 0.01 0.01 0.01 0.01 0.02 0.03 0.03 0.05 0.10 0.15 0.16 0.11 0.05 0.05 0.05 0.03 0.02 0.02 0.01 0.02 0.01 0.02 0.03 0.03 0.05 0.05 0.05 0.10 0.17 0.11 0.04 0.03 0.02 0.01 0.01 0.01 0.01 0.02 0.02 0.02
0.00 0.00 0.00 0.01 0.02 0.02 0.02 0.01 0.01 0.02 0.02 0.04 0.09 0.10 0.07 0.05 0.03 0.04 0.06 0.04 0.02 0.01 0.00 0.01 0.01 0.01 0.01 0.02 0.03 0.05 0.04 0.04 0.10 0.09 0.04 0.03 0.02 0.01 0.02 0.01 0.01 0.01 0.01 0.01
0.00 0.00 0.00 0.01 0.01 0.02 0.02 0.02 0.02 0.03 0.03 0.04 0.07 0.07 0.05 0.05 0.06 0.05 0.04 0.04 0.03 0.01 0.01 0.00 0.00 0.00 0.01 0.01 0.01 0.02 0.02 0.02 0.03 0.03 0.03 0.02 0.02 0.02 0.02 0.01 0.01 0.01 0.01 0.01
0.01 0.01 0.01 0.01 0.02 0.02 0.02 0.02 0.02 0.03 0.02 0.02 0.04 0.06 0.06 0.05 0.05 0.03 0.03 0.04 0.03 0.02 0.01 0.01 0.01 0.00 0.01 0.01 0.00 0.00 0.01 0.01 0.01 0.02 0.02 0.02 0.02 0.02 0.02 0.01 0.01 0.01 0.01 0.02
0.01 0.01 0.01 0.02 0.03 0.03 0.04 0.04 0.04 0.03 0.03 0.02 0.03 0.04 0.06 0.05 0.04 0.05 0.05 0.04 0.03 0.03 0.01 0.01 0.01 0.00 0.01 0.01 0.00 0.00 0.01 0.02 0.03 0.03 0.03 0.04 0.03 0.03 0.03 0.03 0.02 0.01 0.01 0.03
0.02 0.02 0.01 0.01 0.03 0.04 0.03 0.03 0.03 0.03 0.02 0.02 0.03 0.04 0.05 0.07 0.05 0.06 0.05 0.03 0.03 0.03 0.02 0.02 0.01 0.02 0.02 0.01 0.02 0.02 0.03 0.04 0.05 0.06 0.08 0.10 0.08 0.07 0.06 0.05 0.04 0.05 0.06 0.06
0.04 0.05 0.03 0.03 0.03 0.03 0.03 0.03 0.03 0.02 0.02 0.02 0.02 0.03 0.04 0.07 0.07 0.05 0.03 0.03 0.03 0.03 0.03 0.04 0.03 0.03 0.03 0.03 0.04 0.03 0.04 0.04 0.05 0.07 0.12 0.16 0.10 0.08 0.07 0.07 0.08 0.11 0.11 0.12
0.06 0.07 0.07 0.06 0.07 0.05 0.03 0.03 0.04 0.04 0.04 0.03 0.03 0.05 0.08 0.06 0.06 0.05 0.04 0.04 0.05 0.07 0.08 0.06 0.05 0.05 0.05 0.05 0.04 0.05 0.05 0.04 0.04 0.05 0.08 0.12 0.09 0.08 0.09 0.09 0.10 0.11 0.12 0.14
0.09 0.10 0.12 0.10 0.09 0.07 0.04 0.05 0.09 0.09 0.11 0.09 0.06 0.05 0.07 0.06 0.06 0.07 0.06 0.06 0.06 0.06 0.09 0.11 0.07 0.06 0.06 0.05 0.05 0.08 0.10 0.09 0.09 0.11 0.13 0.12 0.10 0.11 0.12 0.13 0.11 0.10 0.11 0.11
0.09 0.11 0.14 0.12 0.11 0.11 0.09 0.06 0.11 0.14 0.14 0.13 0.13 0.09 0.09 0.09 0.11 0.09 0.07 0.07 0.07 0.05 0.05 0.07 0.09 0.06 0.07 0.06 0.07 0.09 0.10 0.11 0.15 0.19 0.18 0.17 0.18 0.21 0.20 0.18 0.17 0.17 0.17 0.16
0.08 0.11 0.14 0.14 0.13 0.13 0.14 0.08 0.06 0.08 0.11 0.13 0.19 0.18 0.13 0.11 0.11 0.10 0.10 0.10 0.10 0.05 0.04 0.04 0.05 0.06 0.07 0.07 0.08 0.13 0.19 0.20 0.21 0.25 0.28 0.31 0.34 0.37 0.37 0.35 0.30 0.25 0.19 0.16
0.13 0.13 0.14 0.15 0.17 0.13 0.11 0.08 0.07 0.10 0.14 0.15 0.20 0.22 0.17 0.14 0.12 0.11 0.08 0.06 0.06 0.04 0.04 0.05 0.05 0.05 0.05 0.06 0.09 0.15 0.22 0.30 0.32 0.33 0.33 0.37 0.44 0.45 0.36 0.29 0.25 0.20 0.19 0.19
0.22 0.18 0.19 0.19 0.20 0.18 0.11 0.09 0.14 0.21 0.21 0.20 0.18 0.21 0.18 0.16 0.17 0.19 0.15 0.09 0.07 0.05 0.05 0.05 0.04 0.04 0.05 0.06 0.09 0.14 0.18 0.22 0.27 0.33 0.35 0.38 0.45 0.50 0.41 0.32 0.24 0.21 0.19 0.20
0.19 0.19 0.19 0.20 0.22 0.18 0.11 0.13 0.20 0.22 0.18 0.17 0.16 0.16 0.13 0.12 0.15 0.15 0.09 0.06 0.05 0.05 0.05 0.05 0.06 0.08 0.07 0.09 0.11 0.14 0.19 0.23 0.27 0.29 0.32 0.35 0.36 0.42 0.40 0.32 0.27 0.24 0.20 0.16
0.12 0.14 0.18 0.21 0.24 0.21 0.15 0.13 0.17 0.18 0.15 0.17 0.14 0.12 0.11 0.09 0.09 0.06 0.04 0.04 0.03 0.03 0.04 0.04 0.04 0.05 0.06 0.06 0.07 0.09 0.11 0.11 0.12 0.12 0.14 0.22 0.27 0.28 0.29 0.32 0.32 0.25 0.20 0.17
0.14 0.13 0.16 0.22 0.25 0.26 0.24 0.17 0.17 0.19 0.17 0.20 0.19 0.14 0.12 0.09 0.06 0.04 0.04 0.03 0.01 0.01 0.02 0.03 0.03 0.03 0.04 0.04 0.04 0.05 0.04 0.05 0.06 0.06 0.07 0.08 0.10 0.12 0.15 0.18 0.20 0.20 0.16 0.14
0.14 0.13 0.14 0.20 0.22 0.25 0.31 0.31 0.20 0.18 0.19 0.22 0.24 0.19 0.14 0.10 0.10 0.09 0.05 0.03 0.02 0.01 0.02 0.03 0.03 0.04 0.03 0.03 0.03 0.02 0.01 0.01 0.02 0.03 0.03 0.04 0.04 0.05 0.06 0.07 0.09 0.10 0.12 0.12
MSLP
1011.39 1011.88 1012.09 1012.06 1011.85 1011.57 1011.27 1011.02 1010.83 1010.66 1010.47 1010.21 1009.87 1009.43 1008.92 1008.43 1008.02 1007.77 1007.74 1007.94 1008.35 1008.90 1009.52 1010.12 1010.64 1011.03 1011.29 1011.46 1011.59 1011.73 1011.96 1012.28 1012.70 1013.18 1013.69 1014.16 1014.55 1014.84 1015.02 1015.12 1015.18 1015.26 1015.40 1015.64
1011.83 1012.14 1012.17 1011.98 1011.68 1011.37 1011.16 1011.06 1011.07 1011.10 1011.10 1010.96 1010.66 1010.17 1009.56 1008.91 1008.34 1007.96 1007.83 1007.97 1008.37 1008.95 1009.59 1010.20 1010.70 1011.03 1011.20 1011.27 1011.31 1011.40 1011.60 1011.95 1012.45 1013.04 1013.66 1014.24 1014.70 1015.01 1015.17 1015.22 1015.22 1015.24 1015.34 1015.56
1011.83 1011.97 1011.83 1011.52 1011.18 1010.94 1010.87 1010.99 1011.26 1011.56 1011.77 1011.79 1011.55 1011.04 1010.33 1009.53 1008.79 1008.24 1007.98 1008.04 1008.40 1008.96 1009.61 1010.23 1010.71 1011.01 1011.13 1011.13 1011.11 1011.15 1011.35 1011.73 1012.28 1012.95 1013.66 1014.31 1014.82 1015.16 1015.31 1015.33 1015.29 1015.27 1015.34 1015.56
1011.41 1011.38 1011.11 1010.74 1010.42 1010.31 1010.45 1010.86 1011.44 1012.04 1012.51 1012.71 1012.54 1012.02 1011.22 1010.26 1009.34 1008.61 1008.20 1008.14 1008.42 1008.95 1009.60 1010.21 1010.69 1010.98 1011.08 1011.06 1011.00 1011.02 1011.21 1011.60 1012.18 1012.89 1013.64 1014.33 1014.88 1015.24 1015.40 1015.41 1015.35 1015.32 1015.38 1015.60
1010.68 1010.50 1010.14 1009.76 1009.53 1009.60 1010.01 1010.73 1011.65 1012.57 1013.29 1013.66 1013.58 1013.05 1012.15 1011.05 1009.94 1009.03 1008.44 1008.26 1008.45 1008.93 1009.55 1010.18 1010.67 1010.98 1011.09 1011.07 1011.00 1011.00 1011.17 1011.55 1012.12 1012.84 1013.59 1014.30 1014.86 1015.22 1015.40 1015.42 1015.38 1015.36 1015.44 1015.67
1009.83 1009.52 1009.10 1008.76 1008.67 1008.95 1009.64 1010.69 1011.92 1013.12 1014.08 1014.60 1014.59 1014.04 1013.05 1011.80 1010.52 1009.43 1008.69 1008.37 1008.47 1008.89 1009.51 1010.14 1010.67 1011.02 1011.16 1011.16 1011.10 1011.09 1011.23 1011.57 1012.11 1012.78 1013.50 1014.19 1014.74 1015.11 1015.30 1015.36 1015.35 1015.37 1015.48 1015.73
1009.04 1008.64 1008.21 1007.93 1007.99 1008.49 1009.44 1010.75 1012.24 1013.67 1014.79 1015.42 1015.44 1014.86 1013.78 1012.41 1010.99 1009.75 1008.87 1008.44 1008.47 1008.85 1009.46 1010.12 1010.69 1011.09 1011.28 1011.32 1011.27 1011.26 1011.36 1011.65 1012.11 1012.71 1013.37 1014.00 1014.53 1014.90 1015.12 1015.22 1015.26 1015.33 1015.49 1015.77
1008.46 1008.01 1007.59 1007.40 1007.60 1008.28 1009.42 1010.93 1012.58 1014.14 1015.34 1016.00 1016.01 1015.38 1014.23 1012.77 1011.25 1009.92 1008.95 1008.45 1008.43 1008.80 1009.41 1010.11 1010.73 1011.18 1011.43 1011.51 1011.48 1011.46 1011.52 1011.74 1012.12 1012.62 1013.20 1013.76 1014.25 1014.61 1014.85 1015.00 1015.11 1015.24 1015.46 1015.78
1008.16 1007.69 1007.31 1007.21 1007.52 1008.32 1009.57 1011.16 1012.86 1014.42 1015.61 1016.22 1016.18 1015.50 1014.30 1012.79 1011.24 1009.88 1008.89 1008.37 1008.34 1008.71 1009.34 1010.07 1010.74 1011.25 1011.56 1011.67 1011.67 1011.63 1011.66 1011.81 1012.09 1012.50 1012.99 1013.48 1013.92 1014.27 1014.53 1014.73 1014.90 1015.10 1015.37 1015.74
1008.10 1007.66 1007.35 1007.32 1007.71 1008.55 1009.81 1011.36 1012.99 1014.44 1015.51 1016.02 1015.90 1015.16 1013.94 1012.45 1010.93 1009.60 1008.66 1008.18 1008.18 1008.57 1009.23 1009.98 1010.69 1011.24 1011.58 1011.74 1011.75 1011.72 1011.71 1011.80 1012.01 1012.33 1012.73 1013.15 1013.55 1013.90 1014.18 1014.42 1014.65 1014.91 1015.24 1015.65
1008.20 1007.83 1007.60 1007.64 1008.06 1008.87 1010.04 1011.45 1012.88 1014.14 1015.01 1015.37 1015.14 1014.36 1013.17 1011.74 1010.32 1009.11 1008.27 1007.87 1007.93 1008.35 1009.03 1009.79 1010.50 1011.07 1011.43 1011.61 1011.65 1011.62 1011.60 1011.66 1011.82 1012.08 1012.41 1012.79 1013.16 1013.50 1013.80 1014.07 1014.36 1014.67 1015.05 1015.50
1008.35 1008.09 1007.95 1008.04 1008.44 1009.17 1010.18 1011.36 1012.53 1013.51 1014.15 1014.32 1013.99 1013.20 1012.07 1010.77 1009.51 1008.46 1007.76 1007.48 1007.60 1008.05 1008.72 1009.46 1010.15 1010.70 1011.06 1011.25 1011.31 1011.29 1011.29 1011.34 1011.48 1011.71 1012.02 1012.37 1012.73 1013.08 1013.40 1013.72 1014.05 1014.41 1014.82 1015.29
1008.49 1008.35 1008.30 1008.43 1008.78 1009.39 1010.18 1011.09 1011.95 1012.64 1013.02 1013.01 1012.59 1011.81 1010.78 1009.65 1008.58 1007.73 1007.20 1007.03 1007.22 1007.67 1008.31 1008.99 1009.62 1010.12 1010.45 1010.64 1010.71 1010.72 1010.75 1010.83 1010.99 1011.23 1011.55 1011.90 1012.27 1012.64 1013.00 1013.35 1013.72 1014.11 1014.56 1015.05
1008.60 1008.58 1008.61 1008.75 1009.05 1009.50 1010.07 1010.68 1011.23 1011.62 1011.75 1011.57 1011.09 1010.35 1009.44 1008.50 1007.65 1007.00 1006.64 1006.58 1006.80 1007.24 1007.81 1008.40 1008.93 1009.35 1009.63 1009.80 1009.88 1009.94 1010.01 1010.14 1010.36 1010.65 1011.00 1011.39 1011.79 1012.19 1012.58 1012.97 1013.37 1013.80 1014.26 1014.76
1008.72 1008.79 1008.89 1009.03 1009.25 1009.54 1009.88 1010.22 1010.47 1010.58 1010.49 1010.18 1009.66 1008.97 1008.20 1007.45 1006.81 1006.35 1006.14 1006.16 1006.40 1006.79 1007.25 1007.73 1008.14 1008.46 1008.68 1008.82 1008.92 1009.02 1009.15 1009.36 1009.64 1009.99 1010.40 1010.84 1011.29 1011.73 1012.16 1012.59 1013.02 1013.46 1013.94 1014.43
1008.91 1009.04 1009.16 1009.28 1009.41 1009.55 1009.68 1009.76 1009.76 1009.63 1009.36 1008.95 1008.40 1007.78 1007.15 1006.57 1006.11 1005.83 1005.73 1005.81 1006.03 1006.36 1006.72 1007.06 1007.35 1007.57 1007.72 1007.83 1007.94 1008.08 1008.28 1008.56 1008.92 1009.34 1009.82 1010.31 1010.80 1011.28 1011.75 1012.20 1012.65 1013.11 1013.59 1014.07
1009.21 1009.36 1009.47 1009.54 1009.57 1009.56 1009.50 1009.37 1009.15 1008.83 1008.42 1007.93 1007.39 1006.84 1006.32 1005.90 1005.60 1005.44 1005.43 1005.54 1005.75 1006.00 1006.26 1006.48 1006.66 1006.79 1006.88 1006.97 1007.09 1007.27 1007.53 1007.87 1008.30 1008.78 1009.30 1009.83 1010.35 1010.86 1011.35 1011.82 1012.29 1012.75 1013.22 1013.69
1009.64 1009.75 1009.79 1009.78 1009.70 1009.55 1009.33 1009.03 1008.64 1008.19 1007.68 1007.15 1006.62 1006.13 1005.72 1005.42 1005.24 1005.19 1005.25 1005.38 1005.57 1005.77 1005.95 1006.08 1006.18 1006.24 1006.30 1006.38 1006.51 1006.72 1007.02 1007.41 1007.87 1008.37 1008.91 1009.46 1009.99 1010.50 1010.99 1011.46 1011.92 1012.38 1012.84 1013.28
1010.13 1010.14 1010.09 1009.97 1009.77 1009.50 1009.14 1008.71 1008.21 1007.66 1007.10 1006.55 1006.04 1005.62 1005.29 1005.09 1005.02 1005.05 1005.16 1005.33 1005.52 1005.69 1005.83 1005.92 1005.98 1006.02 1006.07 1006.15 1006.30 1006.53 1006.84 1007.24 1007.69 1008.19 1008.71 1009.23 1009.73 1010.22 1010.68 1011.13 1011.58 1012.01 1012.45 1012.86
1010.57 1010.46 1010.28 1010.03 1009.71 1009.32 1008.86 1008.34 1007.77 1007.18 1006.60 1006.06 1005.60 1005.24 1004.99 1004.88 1004.89 1004.99 1005.17 1005.38 1005.59 1005.78 1005.92 1006.02 1006.09 1006.14 1006.21 1006.31 1006.47 1006.71 1007.01 1007.39 1007.81 1008.26 1008.71 1009.17 1009.61 1010.04 1010.45 1010.86 1011.26 1011.66 1012.06 1012.45
1010.86 1010.59 1010.27 1009.89 1009.46 1008.97 1008.44 1007.88 1007.29 1006.70 1006.15 1005.65 1005.25 1004.96 1004.80 1004.77 1004.85 1005.03 1005.27 1005.54 1005.80 1006.04 1006.23 1006.38 1006.50 1006.59 1006.70 1006.82 1007.00 1007.22 1007.50 1007.82 1008.17 1008.54 1008.91 1009.27 1009.62 1009.97 1010.30 1010.65 1011.00 1011.35 1011.72 1012.07
1010.91 1010.48 1010.01 1009.51 1008.98 1008.44 1007.88 1007.31 1006.75 1006.22 1005.73 1005.31 1004.99 1004.78 1004.71 1004.76 1004.92 1005.17 1005.48 1005.82 1006.15 1006.46 1006.73 1006.95 1007.14 1007.29 1007.44 1007.60 1007.78 1007.98 1008.22 1008.47 1008.74 1009.00 1009.27 1009.52 1009.77 1010.01 1010.26 1010.53 1010.81 1011.11 1011.43 1011.75
1010.67 1010.10 1009.50 1008.90 1008.32 1007.75 1007.21 1006.69 1006.21 1005.76 1005.38 1005.07 1004.85 1004.75 1004.76 1004.89 1005.13 1005.45 1005.83 1006.24 1006.65 1007.03 1007.38 1007.68 1007.93 1008.15 1008.34 1008.52 1008.70 1008.87 1009.05 1009.23 1009.40 1009.57 1009.73 1009.87 1010.02 1010.16 1010.33 1010.51 1010.72 1010.97 1011.23 1011.51
1010.18 1009.50 1008.81 1008.16 1007.56 1007.01 1006.53 1006.11 1005.74 1005.43 1005.18 1005.00 1004.91 1004.91 1005.02 1005.22 1005.53 1005.90 1006.34 1006.80 1007.27 1007.71 1008.12 1008.48 1008.79 1009.05 1009.27 1009.45 1009.61 1009.75 1009.88 1009.99 1010.08 1010.16 1010.23 1010.29 1010.34 1010.41 1010.49 1010.60 1010.75 1010.92 1011.13 1011.36
1009.53 1008.78 1008.06 1007.40 1006.83 1006.35 1005.97 1005.67 1005.45 1005.30 1005.21 1005.18 1005.21 1005.32 1005.52 1005.79 1006.14 1006.55 1007.02 1007.51 1008.00 1008.47 1008.90 1009.29 1009.62 1009.89 1010.11 1010.28 1010.42 1010.52 1010.60 1010.65 1010.69 1010.71 1010.72 1010.72 1010.72 1010.72 1010.75 1010.79 1010.87 1010.98 1011.13 1011.30
1008.86 1008.10 1007.38 1006.77 1006.26 1005.89 1005.64 1005.50 1005.44 1005.46 1005.52 1005.64 1005.80 1006.01 1006.27 1006.59 1006.97 1007.39 1007.85 1008.33 1008.80 1009.26 1009.68 1010.05 1010.36 1010.60 1010.80 1010.94 1011.04 1011.10 1011.14 1011.16 1011.17 1011.16 1011.14 1011.12 1011.09 1011.06 1011.04 1011.04 1011.06 1011.11 1011.18 1011.29
Thickness
5794 5777 5765 5773 5780 5779 5778 5773 5772 5786 5805 5794 5782 5779 5782 5784 5780 5774 5769 5766 5762 5758 5757 5756 5753 5750 5748 5746 5745 5745 5743 5745 5748 5747 5746 5744 5743 5745 5745 5746 5747 5748 5747 5746
5771 5766 5784 5792 5792 5788 5782 5773 5774 5788 5802 5790 5775 5772 5779 5782 5779 5776 5770 5764 5761 5756 5753 5751 5749 5747 5745 5744 5744 5743 5744 5744 5747 5747 5747 5746 5745 5744 5744 5745 5745 5746 5746 5745
5761 5777 5794 5790 5786 5782 5781 5776 5777 5781 5789 5785 5771 5756 5765 5774 5777 5775 5772 5766 5762 5757 5752 5749 5746 5744 5743 5742 5744 5745 5744 5743 5745 5745 5745 5745 5742 5741 5740 5741 5742 5744 5745 5744
5770 5787 5789 5784 5783 5785 5771 5793 5793 5787 5768 5749 5756 5731 5749 5759 5763 5767 5766 5761 5758 5757 5753 5749 5746 5744 5743 5744 5745 5745 5744 5742 5744 5745 5745 5743 5739 5736 5738 5741 5741 5743 5744 5743
5769 5785 5782 5778 5787 5793 5786 5799 5792 5782 5762 5742 5741 5732 5738 5753 5751 5758 5763 5762 5759 5758 5754 5750 5748 5746 5745 5746 5745 5744 5743 5743 5743 5743 5743 5742 5739 5739 5740 5740 5740 5740 5741 5741
5780 5794 5792 5791 5800 5802 5799 5789 5776 5759 5744 5725 5731 5727 5728 5744 5752 5758 5763 5764 5761 5759 5756 5752 5751 5748 5746 5746 5745 5744 5741 5742 5742 5742 5742 5741 5739 5739 5738 5738 5737 5738 5738 5738
5764 5780 5794 5800 5786 5793 5788 5759 5731 5726 5714 5715 5730 5727 5731 5758 5767 5767 5765 5765 5763 5761 5757 5753 5750 5747 5746 5745 5745 5744 5742 5741 5742 5742 5742 5743 5742 5741 5739 5739 5738 5736 5735 5735
5742 5749 5781 5794 5786 5777 5777 5760 5727 5713 5708 5712 5723 5720 5742 5767 5774 5775 5773 5769 5765 5761 5759 5757 5754 5752 5749 5747 5746 5745 5744 5742 5742 5743 5743 5743 5743 5742 5741 5741 5739 5737 5736 5736
5745 5750 5787 5797 5801 5790 5771 5760 5759 5732 5720 5707 5711 5725 5747 5769 5771 5773 5772 5768 5765 5763 5761 5759 5757 5755 5753 5750 5749 5748 5746 5744 5743 5743 5743 5742 5742 5742 5742 5741 5740 5737 5736 5735
5762 5750 5773 5789 5795 5791 5784 5770 5745 5727 5708 5701 5707 5716 5726 5751 5761 5766 5767 5766 5766 5764 5763 5761 5759 5757 5755 5754 5752 5750 5748 5746 5744 5744 5743 5743 5742 5742 5742 5740 5738 5736 5735 5735
5765 5746 5756 5769 5767 5766 5769 5760 5745 5727 5722 5704 5696 5716 5756 5758 5763 5764 5766 5768 5767 5766 5766 5764 5762 5760 5758 5755 5753 5750 5748 5746 5744 5743 5742 5742 5741 5741 5740 5738 5737 5736 5734 5733
5757 5743 5735 5751 5774 5785 5772 5758 5742 5724 5718 5715 5708 5723 5773 5771 5771 5769 5769 5772 5771 5770 5769 5767 5765 5762 5758 5755 5753 5751 5750 5747 5746 5745 5743 5741 5740 5739 5737 5737 5736 5735 5733 5731
5751 5733 5719 5727 5743 5761 5760 5760 5750 5737 5722 5712 5708 5727 5768 5770 5770 5771 5771 5771 5771 5770 5768 5767 5764 5762 5759 5757 5755 5753 5752 5749 5748 5746 5743 5740 5738 5736 5736 5735 5734 5733 5731 5729
5752 5727 5719 5715 5727 5743 5747 5754 5750 5736 5718 5717 5725 5736 5752 5760 5763 5767 5769 5770 5770 5770 5768 5766 5764 5762 5761 5759 5757 5755 5753 5752 5749 5745 5742 5739 5737 5736 5735 5734 5732 5730 5728 5726
5734 5716 5725 5735 5746 5749 5749 5752 5751 5741 5736 5729 5735 5742 5752 5759 5763 5768 5771 5770 5768 5765 5765 5765 5763 5761 5760 5758 5757 5756 5754 5752 5750 5745 5742 5740 5738 5736 5734 5732 5730 5727 5725 5723
5716 5711 5719 5727 5742 5745 5745 5751 5753 5749 5747 5743 5744 5744 5762 5765 5764 5764 5767 5767 5764 5764 5765 5764 5763 5761 5759 5758 5756 5755 5753 5752 5750 5746 5743 5741 5737 5734 5732 5729 5726 5723 5720 5717
5702 5701 5703 5705 5724 5730 5724 5742 5747 5746 5749 5748 5740 5748 5757 5757 5758 5759 5762 5764 5761 5761 5763 5762 5761 5760 5759 5759 5757 5755 5754 5752 5748 5744 5742 5739 5736 5732 5729 5726 5722 5718 5715 5713
5696 5692 5690 5692 5700 5693 5721 5747 5752 5747 5749 5752 5751 5753 5755 5757 5756 5756 5758 5758 5757 5758 5758 5757 5756 5756 5757 5758 5756 5754 5751 5748 5744 5741 5737 5734 5731 5727 5723 5719 5716 5713 5710 5707
5694 5688 5682 5679 5682 5696 5721 5738 5741 5736 5735 5747 5747 5749 5750 5754 5750 5744 5749 5752 5752 5752 5751 5751 5751 5751 5750 5750 5750 5748 5744 5742 5738 5735 5732 5729 5724 5720 5715 5712 5708 5705 5703 5701
5686 5684 5678 5677 5677 5681 5707 5731 5741 5734 5720 5741 5745 5744 5745 5745 5728 5729 5741 5744 5744 5744 5744 5744 5743 5742 5741 5741 5742 5739 5734 5731 5728 5727 5726 5723 5719 5714 5710 5706 5703 5699 5697 5694
5668 5670 5671 5672 5674 5688 5708 5724 5731 5708 5714 5734 5739 5739 5737 5730 5728 5730 5734 5735 5735 5734 5734 5734 5733 5731 5730 5732 5731 5726 5723 5720 5719 5719 5717 5715 5712 5708 5704 5699 5695 5691 5688 5685
5661 5663 5665 5666 5666 5677 5706 5713 5708 5710 5723 5728 5730 5731 5730 5726 5724 5725 5724 5723 5723 5722 5722 5723 5721 5719 5719 5721 5719 5715 5711 5711 5711 5709 5706 5703 5700 5698 5695 5690 5685 5682 5679 5675
5661 5665 5666 5668 5672 5686 5696 5701 5708 5714 5716 5718 5719 5721 5723 5718 5715 5714 5712 5711 5711 5711 5710 5710 5709 5707 5707 5707 5707 5703 5700 5700 5698 5696 5692 5690 5689 5686 5683 5679 5674 5670 5667 5664
5663 5668 5667 5667 5674 5683 5691 5699 5704 5709 5709 5712 5713 5713 5713 5707 5705 5703 5701 5700 5699 5699 5698 5698 5697 5695 5693 5693 5693 5691 5689 5688 5685 5681 5679 5677 5676 5673 5671 5668 5663 5659 5656 5653
5660 5663 5661 5662 5670 5677 5684 5688 5693 5697 5700 5701 5700 5700 5699 5697 5694 5692 5689 5687 5686 5686 5686 5685 5683 5682 5680 5680 5678 5678 5677 5676 5672 5669 5667 5665 5663 5661 5659 5656 5653 5650 5648 5646
5658 5658 5657 5658 5667 5668 5670 5678 5684 5685 5685 5686 5686 5684 5683 5685 5683 5681 5678 5676 5675 5674 5673 5672 5670 5669 5668 5667 5666 5665 5665 5663 5660 5656 5654 5652 5650 5648 5646 5644 5641 5639 5637 5634